Flight Track Log - Related Links

Times and Time Zones

All times are in EDT time to prevent confusion due to time zone crossing. See the ASQ4504 flight status page for this flight to view local times or setup timezone preferences in your user account.

Time Position Orientation Groundspeed Altitude Reporting Facility
EDT Latitude Longitude Course Direction KTS MPH feet Rate Location/Type
Sun 10:08:37 AM 35.2281 -80.9533 354° North 150 173 1,400  Level FAA TRACON SMA TRACON (SMA)
Sun 10:08:58 AM 35.2422 -80.9553 354° North 170 196 2,100 2,195 Climbing FAA TRACON SMA TRACON (SMA)
Sun 10:09:18 AM 35.2567 -80.9694 321° Northwest 183 211 2,900 1,650 Climbing FAA TRACON SMA TRACON (SMA)
Sun 10:09:38 AM 35.2706 -80.9833 321° Northwest 218 251 3,200 900 Climbing FAA TRACON SMA TRACON (SMA)
Sun 10:09:58 AM 35.2867 -80.9992 321° Northwest 247 284 3,500 1,800 Climbing FAA TRACON SMA TRACON (SMA)
Sun 10:10:18 AM 35.3131 -81.0047 350° North 247 284 4,400 2,700 Climbing FAA TRACON SMA TRACON (SMA)
Sun 10:10:38 AM 35.3347 -81.0000 10° North 251 289 5,300 2,550 Climbing FAA TRACON SMA TRACON (SMA)
Sun 10:10:58 AM 35.3561 -80.9956 10° North 254 292 6,100 2,850 Climbing FAA TRACON SMA TRACON (SMA)
Sun 10:11:18 AM 35.3831 -80.9892 11° North 255 293 7,200 2,700 Climbing FAA TRACON SMA TRACON (SMA)
Sun 10:11:38 AM 35.4047 -80.9839 11° North 255 293 7,900 1,800 Climbing FAA TRACON SMA TRACON (SMA)
Sun 10:11:58 AM 35.4269 -80.9783 12° North 260 299 8,400 2,100 Climbing FAA TRACON SMA TRACON (SMA)
Sun 10:12:18 AM 35.4564 -80.9686 15° North 280 322 9,300 2,195 Climbing FAA TRACON SMA TRACON (SMA)
Sun 10:12:39 AM 35.4794 -80.9617 14° North 282 325 9,900 1,846 Climbing FAA TRACON SMA TRACON (SMA)
Sun 10:12:57 AM 35.5033 -80.9542 14° North 286 329 10,500 1,579 Climbing FAA TRACON SMA TRACON (SMA)
Sun 10:13:17 AM 35.5344 -80.9442 15° North 300 345 10,900 1,171 Climbing FAA TRACON SMA TRACON (SMA)
Sun 10:13:38 AM 35.5608 -80.9361 14° North 312 359 11,300 1,024 Climbing FAA TRACON SMA TRACON (SMA)
Sun 10:13:58 AM 35.5889 -80.9272 14° North 329 379 11,600 1,050 Climbing FAA TRACON SMA TRACON (SMA)
Sun 10:14:18 AM 35.6247 -80.9161 14° North 343 395 12,000 1,050 Climbing FAA TRACON SMA TRACON (SMA)
Sun 10:14:38 AM 35.6542 -80.9067 15° North 354 407 12,300 913 Climbing FAA TRACON SMA TRACON (SMA)
Sun 10:15:04 AM 35.6986 -80.8908 16° North 331 381 12,700 977 Climbing Atlanta Center
Sun 10:16:04 AM 35.8031 -80.8869 North 360 414 13,700 1,050 Climbing Atlanta Center
Sun 10:17:04 AM 35.9039 -80.9214 345° North 366 421 14,800 1,050 Climbing Atlanta Center
Sun 10:18:04 AM 36.0069 -80.9558 345° North 380 437 15,800 1,000 Climbing Atlanta Center
Sun 10:19:04 AM 36.1122 -80.9931 344° North 387 445 16,800 1,200 Climbing Atlanta Center
Sun 10:20:04 AM 36.2153 -81.0278 345° North 387 445 18,200 1,650 Climbing Atlanta Center
Sun 10:21:04 AM 36.3142 -81.0603 345° North 382 440 20,100 1,700 Climbing Atlanta Center
Sun 10:22:04 AM 36.4131 -81.0925 345° North 366 421 21,600 1,300 Climbing Atlanta Center
Sun 10:23:04 AM 36.5139 -81.1250 345° North 366 421 22,700 1,050 Climbing Atlanta Center
Sun 10:24:04 AM 36.6169 -81.1600 345° North 372 428 23,700 1,000 Climbing Atlanta Center
Sun 10:25:04 AM 36.7239 -81.1975 344° North 386 444 24,700 995 Climbing Atlanta Center
Sun 10:27:11 AM 36.9486 -81.2783 344° North 404 465 26,800 952 Climbing Indianapolis Center
Sun 10:28:13 AM 37.0506 -81.3125 345° North 407 468 27,700 1,016 Climbing Indianapolis Center
Sun 10:29:15 AM 37.1761 -81.3558 345° North 403 464 28,900 1,065 Climbing Indianapolis Center
Sun 10:30:17 AM 37.2833 -81.3936 344° North 401 461 29,900 976 Climbing Indianapolis Center
Sun 10:31:18 AM 37.3944 -81.4328 344° North 404 465 30,900 976 Climbing Indianapolis Center
Sun 10:32:20 AM 37.5019 -81.4700 345° North 409 471 31,900 532 Climbing Indianapolis Center
Sun 10:33:22 AM 37.6167 -81.5100 345° North 420 483 32,000 48 Climbing Indianapolis Center
Sun 10:34:24 AM 37.7364 -81.5522 344° North 442 509 32,000  Level Indianapolis Center
Sun 10:35:25 AM 37.8678 -81.5853 349° North 455 524 32,000  Level Indianapolis Center
Sun 10:36:27 AM 37.9925 -81.6103 351° North 453 521 32,000  Level Indianapolis Center
Sun 10:37:29 AM 38.1169 -81.6358 351° North 452 520 32,000  Level Indianapolis Center
Sun 10:38:31 AM 38.2414 -81.6608 351° North 451 519 32,000  Level Indianapolis Center
Sun 10:39:32 AM 38.3900 -81.6908 351° North 447 514 32,000  Level Indianapolis Center
Sun 10:40:34 AM 38.5139 -81.7169 351° North 448 516 32,000  Level Indianapolis Center
Sun 10:41:36 AM 38.6397 -81.7436 351° North 449 517 32,000  Level Indianapolis Center
Sun 10:42:38 AM 38.7672 -81.7692 351° North 448 516 32,000  Level Indianapolis Center
Sun 10:43:40 AM 38.8894 -81.7936 351° North 443 510 32,000  Level Indianapolis Center
Sun 10:44:41 AM 39.0128 -81.8203 350° North 446 513 32,000  Level Indianapolis Center
Sun 10:45:43 AM 39.1344 -81.8458 351° North 443 510 32,000  Level Indianapolis Center
Sun 10:46:45 AM 39.2578 -81.8700 351° North 445 512 32,000 -871 Level Indianapolis Center
Sun 10:47:47 AM 39.3783 -81.8953 351° North 435 501 30,200 -1,805 Descending Indianapolis Center
Sun 10:48:48 AM 39.4944 -81.9200 351° North 424 488 28,300 -1,902 Descending Indianapolis Center
Sun 10:49:50 AM 39.6131 -81.9458 350° North 429 494 26,300 -1,935 Descending Indianapolis Center
Sun 10:50:52 AM 39.7497 -81.9742 351° North 436 502 24,300 -1,122 Descending Indianapolis Center
Sun 10:51:53 AM 39.8692 -82.0003 350° North 433 498 24,000 -585 Descending Indianapolis Center
Sun 10:52:55 AM 39.9872 -82.0239 351° North 426 490 23,100 -919 Descending Indianapolis Center
Sun 10:53:57 AM 40.0947 -82.0494 350° North 386 444 22,100 -1,016 Descending Indianapolis Center
Sun 10:54:59 AM 40.1933 -82.0694 351° North 353 406 21,000 -1,122 Descending Indianapolis Center
Sun 10:56:00 AM 40.2956 -82.0925 350° North 319 367 19,800 -1,073 Descending Indianapolis Center
Sun 10:57:02 AM 40.3822 -82.1100 351° North 311 358 18,800 -919 Descending Indianapolis Center
Sun 10:58:04 AM 40.4722 -82.1133 358° North 320 368 17,900 -1,171 Descending Indianapolis Center
Sun 10:59:05 AM 40.5422 -82.0442 37° Northeast 311 358 16,400 -1,450 Descending Indianapolis Center
Sun 11:00:04 AM 40.6131 -81.9725 38° Northeast 303 349 15,000 -1,152 Descending Cleveland Center
Sun 11:01:10 AM 40.6975 -81.8922 36° Northeast 380 437 14,000 -938 Descending Cleveland Center
Sun 11:01:40 AM 40.7397 -81.8464 39° Northeast 381 438 13,500 -1,111 Descending Cleveland Center
Sun 11:02:04 AM 40.7756 -81.8114 36° Northeast 361 415 13,000 -1,672 Descending Cleveland Center
Sun 11:02:41 AM 40.8219 -81.7656 37° Northeast 364 419 11,800 -2,300 Descending Cleveland Center
Sun 11:03:04 AM 40.8617 -81.7472 19° North 366 421 10,700 -2,082 Descending Cleveland Center
Sun 11:03:30 AM 40.9014 -81.7506 356° North 339 390 10,100 -700 Descending Cleveland Center
Sun 11:04:04 AM 40.9469 -81.7733 339° North 315 362 10,000 -152 Descending Cleveland Center
Sun 11:04:49 AM 41.0028 -81.8047 337° Northwest 292 336 9,900 -500 Descending Cleveland Center
Sun 11:05:04 AM 41.0194 -81.8106 345° North 289 333 9,500 -1,250 Descending Cleveland Center
Sun 11:05:37 AM 41.0547 -81.8306 337° Northwest 247 284 8,900 -1,400 Descending Cleveland Center
Sun 11:06:04 AM 41.0817 -81.8447 338° Northwest 270 311 8,100 -1,967 Descending Cleveland Center
Sun 11:06:38 AM 41.1253 -81.8650 341° North 263 303 6,900 -1,900 Descending Cleveland Center
Sun 11:07:04 AM 41.1481 -81.8792 335° Northwest 258 297 6,200 -1,967 Descending Cleveland Center
Sun 11:07:39 AM 41.1936 -81.9022 339° North 257 296 4,900 -1,800 Descending Cleveland Center
Sun 11:08:04 AM 41.2164 -81.9108 344° North 253 291 4,400 -1,200 Descending Cleveland Center
Sun 11:08:39 AM 41.2578 -81.9367 335° Northwest 239 275 3,700 -1,000 Descending Cleveland Center
Sun 11:09:04 AM 41.2764 -81.9453 341° North 247 284 3,400 -590 Descending Cleveland Center
Sun 11:09:40 AM 41.3200 -81.9600 346° North 229 264 3,100 -500 Descending Cleveland Center
Sun 11:10:04 AM 41.3408 -81.9550 10° North 228 262 2,900 -787 Descending Cleveland Center
Sun 11:10:41 AM 41.3619 -81.9333 38° Northeast 147 169 2,300 -1,100 Descending Cleveland Center
Sun 11:11:04 AM 41.3725 -81.9197 44° Northeast 173 199 1,800 -984 Descending Cleveland Center
Sun 11:11:42 AM 41.3875 -81.8978 48° Northeast 127 146 1,300 -789 Descending Cleveland Center

Login

Don't have an account? Register now (free) for customized features, flight alerts, and more!